Starlink 11129

operational
NORAD ID: 60038 Int'l Des: 2024-112 Owner: SPXS Country: US Constellation: starlink
LEOCIRCULAR

Über Starlink 11129

Beschreibung wird geladen...

Live-Position

3D-Globus wird geladen...

Nächste Überflüge

Höhenverlauf

Altitude vs Time

uPlot chart will show altitude changes over time

Zweizeiliger Elementsatz

1 60038U 24112A 25354.02097317 -.00002080 00000-0 -12303-4 0 9990
2 60038 53.1595 299.3379 0001219 88.5573 271.5585 15.69722743 88463
Epoch: 20. Dez. 2025 • Age: 12 hours

Aktueller Status

Höhe 359.7 km
Geschwindigkeit 7.70 km/s
Subsatellitenpunkt 17.51°N, 28.73°E
Startdatum 8. Juni 2024
Alter 1.5 years
Typ internet

Technische Details

Klassifizierung Payload
Masse 960.00 kg
Trockenmasse 910.00 kg
Gesamtmasse 960.00 kg
Länge 0.30 m
Durchmesser 4.10 m
Spannweite 29.00 m
Form Box + pan
Hersteller SPXS
Bus-Typ Starlink V2MD
Phasenstatus In Orbit
Besitzer/Staat SPXS/US

Große Konstellationen

Loading constellations...